Terug naar catalogus

STARLINK-34424

ActiefCommunicatieVLEO
NORAD 64295·PAYLOAD·🇺🇸 United States

Gelanceerd Jun 8, 2025 vanaf Vandenberg Space Force Base

Loading…

Volgende Passages (komende 24 uur)

TLE

VersSource: CelesTrak SupGP

Epoch: Sep 14, 2026, 20:42 UTC

1 64295C 25123E   26257.86298611  .00022509  00000+0  78315-3 0  2573
2 64295  70.0005  75.7557 0003293 273.8634 244.6274 15.29561601    12

Volg STARLINK-34424 in realtime met AllMySat

Download on the App Store